Weather reports worldwide

Advertisment
Leucate/Semaphore, France (7666): temperature & dewpoint: 10.08.2018 18:00:00 - 16.08.2018 18:00:00 (CEST)Leucate/Semaphore, France (7666): wind speed & gusts: 10.08.2018 18:00:00 - 16.08.2018 18:00:00 (CEST)Leucate/Semaphore, France (7666): wind direction: 10.08.2018 18:00:00 - 16.08.2018 18:00:00 (CEST)Leucate/Semaphore, France (7666): reduced air pressure: 10.08.2018 18:00:00 - 16.08.2018 18:00:00 (CEST)Leucate/Semaphore, France (7666): visibility: 10.08.2018 18:00:00 - 16.08.2018 18:00:00 (CEST)Leucate/Semaphore, France (7666): precipitation: 10.08.2018 18:00:00 - 16.08.2018 18:00:00 (CEST)
Date & Time tt [°C] td [°C] ff [km/h] ff [kn] fx [km/h] fx [kn] dd ppp [hPa] vv [km] rr [mm]
16.08.2018 18:00:00 24,0 18,4 16 9 23 12 SSE 1013,9 - 0,0
16.08.2018 17:00:00 24,5 18,9 16 9 20 11 SE 1014,0 20 0,0
16.08.2018 16:00:00 25,4 18,8 11 6 16 8 SE 1014,5 - 0,0
16.08.2018 15:00:00 25,4 18,3 11 6 16 8 ESE 1014,9 - 0,0
16.08.2018 14:00:00 25,6 18,0 11 6 16 9 ESE 1015,2 - 0,0
16.08.2018 13:00:00 25,7 17,9 6 3 9 5 ESE 1015,6 - 0,0
16.08.2018 12:00:00 25,7 17,4 5 3 8 5 ENE 1015,9 - 0,0
16.08.2018 11:00:00 25,0 17,2 5 3 9 5 ESE 1016,0 - 0,0
16.08.2018 10:00:00 24,3 16,0 5 3 11 6 NNE 1015,7 - 0,0
16.08.2018 09:00:00 23,6 16,9 4 2 7 4 NNE 1015,6 - 0,0
16.08.2018 08:00:00 23,4 14,4 3 2 5 3 E 1015,4 20 0,0
16.08.2018 07:00:00 21,2 12,6 2 1 9 5 N 1015,2 - 0,0
16.08.2018 06:00:00 20,6 12,8 5 3 11 6 WNW 1015,2 - 0,0
16.08.2018 05:00:00 22,1 12,9 8 4 10 5 NW 1015,3 - 0,0
16.08.2018 04:00:00 22,1 13,2 8 4 12 7 WNW 1015,6 - 0,0
16.08.2018 03:00:00 22,0 14,6 8 4 9 5 NNW 1015,7 - 0,0
16.08.2018 02:00:00 23,3 14,0 7 4 10 6 N 1016,0 - 0,0
16.08.2018 01:00:00 24,0 14,1 5 3 9 5 W 1016,1 - 0,0
16.08.2018 00:00:00 25,1 14,8 3 2 10 6 SSE 1016,0 - 0,0
15.08.2018 23:00:00 25,9 13,1 12 7 17 9 WNW 1016,1 - 0,0
15.08.2018 22:00:00 25,0 15,6 4 2 9 5 S 1015,9 - 0,0
15.08.2018 21:00:00 26,7 19,6 5 3 18 10 WNW 1015,4 - 0,0
15.08.2018 20:00:00 27,9 17,1 6 3 22 12 WNW 1015,2 24 0,0
15.08.2018 19:00:00 31,6 13,4 8 5 30 16 NW 1015,2 - 0,0
15.08.2018 18:00:00 31,4 13,2 13 7 29 16 NNW 1015,5 - 0,0
15.08.2018 17:00:00 31,5 12,3 14 8 32 17 NNW 1015,9 24 0,0
15.08.2018 16:00:00 31,2 12,1 15 8 44 24 NNW 1016,3 - 0,0
15.08.2018 15:00:00 30,5 11,9 18 10 37 20 NW 1016,7 - 0,0
15.08.2018 14:00:00 29,6 12,1 22 12 43 23 NW 1017,3 - 0,0
15.08.2018 13:00:00 28,7 11,7 24 13 49 27 NW 1017,7 - 0,0
15.08.2018 12:00:00 27,6 11,2 27 15 47 26 NW 1018,0 - 0,0
15.08.2018 11:00:00 26,5 12,5 25 14 48 26 NW 1018,2 - 0,0
15.08.2018 10:00:00 25,0 13,2 22 12 48 26 NW 1018,2 - 0,0
15.08.2018 09:00:00 23,0 13,5 24 13 48 26 NW 1018,5 - 0,0
15.08.2018 08:00:00 21,5 13,1 22 12 39 21 WNW 1018,5 22 0,0
15.08.2018 07:00:00 20,7 13,2 20 11 41 22 WNW 1018,3 - 0,0
15.08.2018 06:00:00 21,1 13,8 22 12 44 24 WNW 1018,3 - 0,0
15.08.2018 05:00:00 21,6 14,0 23 13 47 25 NW 1018,5 18 0,0
15.08.2018 04:00:00 21,9 13,8 21 11 60 33 NW 1018,3 - 0,0
15.08.2018 03:00:00 22,5 13,6 31 17 58 32 NW 1017,8 - 0,0
15.08.2018 02:00:00 22,7 13,5 29 16 63 34 NW 1018,1 - 0,0
15.08.2018 01:00:00 23,0 13,2 31 17 61 33 NW 1018,2 - 0,0
15.08.2018 00:00:00 23,1 13,0 29 16 57 31 NW 1018,5 - 0,0
14.08.2018 23:00:00 23,5 12,8 26 14 53 29 NW 1018,1 - 0,0
14.08.2018 22:00:00 23,9 13,1 28 15 50 27 NW 1017,9 - 0,0
14.08.2018 21:00:00 24,3 12,9 27 14 54 29 NW 1017,4 - 0,0
14.08.2018 20:00:00 25,7 12,2 31 17 73 39 NW 1017,1 - 0,0
14.08.2018 19:00:00 26,7 12,4 33 18 71 38 NW 1016,8 - 0,0
14.08.2018 18:00:00 27,3 11,3 35 19 65 35 NW 1017,0 - 0,0
14.08.2018 17:00:00 27,8 10,9 37 20 64 35 NW 1016,7 28 0,0
14.08.2018 16:00:00 27,6 11,6 39 21 72 39 NW 1016,7 - 0,0
14.08.2018 15:00:00 27,2 11,2 40 22 74 40 NW 1016,7 - 0,0
14.08.2018 14:00:00 25,2 13,7 29 16 62 34 NW 1017,2 - 0,0
14.08.2018 13:00:00 24,0 15,2 23 13 57 31 NNW 1017,4 - 0,0
14.08.2018 12:00:00 25,4 13,9 29 15 54 29 NW 1017,7 - 0,0
14.08.2018 11:00:00 24,2 14,6 26 14 58 31 NW 1017,9 24 0,0
14.08.2018 10:00:00 23,4 14,7 20 11 48 26 NW 1017,8 - 0,0
14.08.2018 09:00:00 21,5 14,4 24 13 53 28 NW 1018,0 - 0,0
14.08.2018 08:00:00 20,9 15,0 26 14 50 27 NW 1017,1 20 0,0
14.08.2018 07:00:00 20,4 15,0 17 9 47 25 NW 1016,7 - 0,0
14.08.2018 06:00:00 20,9 15,7 22 12 66 35 NW 1015,7 - 0,0
14.08.2018 05:00:00 21,2 15,5 39 21 65 35 NW 1015,1 - 0,0
14.08.2018 04:00:00 21,6 15,7 30 16 62 34 NW 1014,8 - 0,0
14.08.2018 03:00:00 21,8 16,1 22 12 55 30 NW 1015,3 - 0,0
14.08.2018 02:00:00 22,3 16,6 19 11 46 25 NW 1015,2 - 0,0
14.08.2018 01:00:00 22,5 16,8 19 11 47 26 NW 1015,8 - 0,0
14.08.2018 00:00:00 23,1 16,6 18 10 44 24 NW 1015,2 - 0,0
13.08.2018 23:00:00 23,5 16,5 22 12 46 25 NW 1014,6 - 0,0
13.08.2018 22:00:00 24,7 16,7 20 11 43 23 NW 1014,1 - 0,0
13.08.2018 21:00:00 25,6 17,3 22 12 47 25 NW 1013,5 - 0,0
13.08.2018 20:00:00 26,7 16,9 19 11 41 22 NW 1012,5 - 0,0
13.08.2018 19:00:00 25,3 19,7 12 7 31 17 S 1011,9 - 0,0
13.08.2018 18:00:00 24,7 19,8 23 12 29 16 S 1011,8 - 0,0
13.08.2018 17:00:00 24,3 18,9 25 13 29 16 S 1012,3 24 0,0
13.08.2018 16:00:00 25,2 19,6 19 10 24 13 S 1012,6 - 0,0
13.08.2018 15:00:00 25,3 19,7 17 9 28 15 SE 1013,1 - 0,0
13.08.2018 14:00:00 25,3 19,0 22 12 30 16 ESE 1013,2 24 0,0
13.08.2018 13:00:00 27,7 19,2 10 5 27 14 NNE 1013,7 - 0,0
13.08.2018 12:00:00 28,4 16,7 13 7 31 17 NNW 1013,9 - 0,0
13.08.2018 11:00:00 26,8 16,7 19 10 42 23 NW 1014,0 - 0,0
13.08.2018 10:00:00 25,2 17,1 20 11 50 27 NW 1013,7 - 0,0
13.08.2018 09:00:00 23,7 17,2 24 13 46 25 NW 1013,4 - 0,0
13.08.2018 08:00:00 22,5 17,0 22 12 41 22 NW 1012,6 20 0,0
13.08.2018 07:00:00 21,7 16,4 6 3 11 6 N 1012,4 - 0,0
13.08.2018 06:00:00 22,4 16,4 4 2 23 12 NE 1012,5 - 0,0
13.08.2018 05:00:00 21,8 17,8 11 6 17 9 WSW 1012,8 - 0,0
13.08.2018 04:00:00 21,7 17,9 9 5 13 7 W 1014,0 - 0,0
13.08.2018 03:00:00 22,6 17,9 3 2 18 10 ESE 1014,2 - 0,0
13.08.2018 02:00:00 21,6 17,2 7 4 30 16 W 1013,9 - 0,0
13.08.2018 01:00:00 22,6 18,8 20 11 46 25 N 1011,9 - 0,0
13.08.2018 00:00:00 22,5 18,5 21 12 42 23 N 1011,4 - 0,0
12.08.2018 23:00:00 23,9 19,0 18 10 51 28 NNW 1013,9 - 0,0
12.08.2018 22:00:00 24,5 22,9 13 7 22 12 WNW 1013,6 - 0,0
12.08.2018 21:00:00 24,3 22,7 10 6 16 9 NNW 1012,5 - 0,0
12.08.2018 20:00:00 24,2 22,1 10 6 17 9 N 1012,7 10 0,0
12.08.2018 19:00:00 24,0 21,5 6 3 12 6 NNE 1012,5 - 0,0
12.08.2018 18:00:00 23,9 21,2 4 2 10 5 ESE 1013,2 - 0,0
12.08.2018 17:00:00 23,6 21,3 8 5 16 9 SE 1014,0 20 0,0
12.08.2018 16:00:00 25,6 20,4 11 6 16 9 E 1014,8 - 0,0
12.08.2018 15:00:00 24,7 19,3 10 5 18 10 ENE 1015,3 - 0,0
12.08.2018 14:00:00 26,1 19,0 6 4 17 9 NE 1015,8 20 0,0
12.08.2018 13:00:00 25,6 17,5 7 4 16 9 NE 1016,5 - 0,0
12.08.2018 12:00:00 25,2 16,9 9 5 20 11 ENE 1017,0 - 0,0
12.08.2018 11:00:00 25,0 16,7 9 5 21 11 NE 1017,0 - 0,0
12.08.2018 10:00:00 24,1 17,1 11 6 21 11 NNE 1016,8 - 0,0
12.08.2018 09:00:00 23,8 14,8 13 7 20 11 NNW 1016,8 - 0,0
12.08.2018 08:00:00 22,4 14,0 13 7 21 12 NNW 1016,8 - 0,0
12.08.2018 07:00:00 21,4 15,2 15 8 21 12 NNW 1016,5 - 0,0
12.08.2018 06:00:00 21,2 16,4 15 8 25 13 NNW 1016,5 - 0,0
12.08.2018 05:00:00 21,2 17,4 18 10 28 15 NNW 1016,6 - 0,0
12.08.2018 04:00:00 21,4 18,0 18 10 29 15 NNW 1017,0 - 0,0
12.08.2018 03:00:00 22,2 17,6 19 11 28 15 NNW 1017,1 - 0,0
12.08.2018 02:00:00 23,4 15,4 18 10 25 14 NNW 1017,2 - 0,0
12.08.2018 01:00:00 25,5 14,6 7 4 16 9 WNW 1017,6 - 0,0
12.08.2018 00:00:00 25,0 17,2 16 9 19 10 SW 1017,8 - 0,0
11.08.2018 23:00:00 24,1 18,1 3 2 13 7 W 1018,0 - 0,0
11.08.2018 22:00:00 23,9 18,5 6 3 21 11 E 1017,9 - 0,0
11.08.2018 21:00:00 23,2 18,7 14 8 32 18 S 1017,7 - 0,0
11.08.2018 20:00:00 23,5 18,4 18 10 26 14 S 1017,9 - 0,0
11.08.2018 19:00:00 23,9 17,6 18 10 30 16 S 1018,0 - 0,0
11.08.2018 18:00:00 24,0 18,0 20 11 29 16 S 1018,2 - 0,0
11.08.2018 17:00:00 24,4 17,6 19 11 31 17 S 1018,8 - 0,0
11.08.2018 16:00:00 24,6 16,3 19 10 25 14 S 1019,6 - 0,0
11.08.2018 15:00:00 24,5 17,7 16 9 23 13 S 1020,5 - 0,0
11.08.2018 14:00:00 25,1 18,5 18 10 24 13 S 1021,1 - 0,0
11.08.2018 13:00:00 25,8 16,9 13 7 24 13 SE 1021,6 - 0,0
11.08.2018 12:00:00 27,8 13,3 13 7 25 13 NNW 1022,0 - 0,0
11.08.2018 11:00:00 26,0 13,1 17 9 28 15 NNW 1022,4 25 0,0
11.08.2018 10:00:00 24,9 12,1 18 10 31 17 NNW 1022,7 - 0,0
11.08.2018 09:00:00 23,7 12,3 17 9 30 16 NNW 1022,8 - 0,0
11.08.2018 08:00:00 22,0 12,0 14 8 24 13 NNW 1022,5 22 0,0
11.08.2018 07:00:00 20,3 12,0 8 4 22 12 NNW 1022,2 - 0,0
11.08.2018 06:00:00 21,0 12,2 17 9 28 15 NNW 1022,0 - 0,0
11.08.2018 05:00:00 21,6 12,4 17 9 34 18 NNW 1022,1 18 0,0
11.08.2018 04:00:00 22,4 11,5 16 9 45 25 NW 1022,3 - 0,0
11.08.2018 03:00:00 23,0 12,0 24 13 42 23 NW 1022,6 - 0,0
11.08.2018 02:00:00 23,0 13,5 23 12 44 24 NW 1022,8 - 0,0
11.08.2018 01:00:00 23,5 13,4 23 13 45 24 NW 1022,9 - 0,0
11.08.2018 00:00:00 23,6 13,2 19 10 36 20 NW 1022,8 - 0,0
10.08.2018 23:00:00 24,1 13,3 19 11 32 17 WNW 1022,4 - 0,0
10.08.2018 22:00:00 24,8 13,0 14 7 28 15 WNW 1022,0 - 0,0
10.08.2018 21:00:00 24,4 15,6 7 4 14 8 W 1021,5 - 0,0
10.08.2018 20:00:00 24,5 16,5 9 5 24 13 SSW 1021,2 - 0,0
10.08.2018 19:00:00 24,5 16,2 18 10 27 15 S 1021,2 - 0,0
10.08.2018 18:00:00 24,6 16,6 16 9 24 13 S 1021,3 - 0,0

tt = temperature
td = dewpoint
ff = wind speed
fx = gusts
dd = wind direction
ppp = reduced air pressure
vv = visibility
rr = precipitation

Next stations